K4AXV-13 Weather Reports


time (UTC)temp
F
wind
direction
speed
knots
gust
knots
rain 1hr
in
rain 24hr
in
rain mn
in
humidity
%
barometer
mb
20260505040310 57 7 0.0 0.0 0.00 0.00 0.00
20260505035811 57 7 0.0 0.0 0.00 0.00 0.00
20260505035309 57 7 0.0 0.0 0.00 0.00 0.00
20260505034533 58 7 0.0 0.0 0.00 0.00 0.00
20260505034307 58 7 0.0 0.0 0.00 0.00 0.00
20260505033808 58 7 0.0 0.0 0.00 0.00 0.00
20260505033532 58 7 0.0 0.0 0.00 0.00 0.00
20260505033306 58 7 0.0 0.0 0.00 0.00 0.00
20260505032807 58 7 0.0 0.0 0.00 0.00 0.00
20260505031305 58 7 0.0 0.0 0.00 0.00 0.00
20260505024303 59 7 0.0 0.0 0.00 0.00 0.00
20260505022804 60 7 0.0 0.0 0.00 0.00 0.00
20260505022304 60 7 0.0 0.0 0.00 0.00 0.00
20260505021803 60 7 0.0 0.0 0.00 0.00 0.00
20260505021300 60 7 0.0 0.0 0.00 0.00 0.00
20260505020801 60 7 0.0 0.0 0.00 0.00 0.00
20260505020401 60 7 0.0 0.0 0.00 0.00 0.00
20260505020300 60 7 0.0 0.0 0.00 0.00 0.00
20260505015801 60 7 0.0 0.0 0.00 0.00 0.00
20260505015421 61 7 0.0 0.0 0.00 0.00 0.00
20260505015259 61 7 0.0 0.0 0.00 0.00 0.00
20260505014800 62 7 0.0 0.0 0.00 0.00 0.00
20260505014259 62 7 0.0 0.0 0.00 0.00 0.00
20260505013800 62 7 0.0 0.0 0.00 0.00 0.00
20260505011759 63 7 0.0 0.0 0.00 0.00 0.00
20260505011257 63 7 0.0 0.0 0.00 0.00 0.00
20260505010758 63 7 0.0 0.0 0.00 0.00 0.00
20260505010256 63 7 0.0 0.0 0.00 0.00 0.00
20260505005357 65 7 0.0 0.0 0.00 0.00 0.00
20260505005256 65 7 0.0 0.0 0.00 0.00 0.00
20260505004448 65 7 0.0 0.0 0.00 0.00 0.00
20260505004255 65 7 0.0 0.0 0.00 0.00 0.00
20260505002756 66 7 0.0 0.0 0.00 0.00 0.00
20260505001756 67 7 0.0 0.0 0.00 0.00 0.00
20260505000754 68 274 0.0 0.0 0.00 0.00 0.00
20260505000252 68 274 0.0 0.0 0.00 0.00 0.00
20260504235754 68 274 0.0 0.0 0.00 0.00 0.00
20260504235252 68 302 0.9 1.7 0.00 0.00 0.00
20260504234753 69 252 0.0 0.0 0.00 0.00 0.00
20260504234251 69 333 0.0 0.0 0.00 0.00 0.00
20260504233901 69 20 0.9 0.0 0.00 0.00 0.00
20260504233753 69 7 0.9 0.9 0.00 0.00 0.00
20260504233251 69 20 0.9 0.0 0.00 0.00 0.00
20260504232250 69 284 2.6 3.5 0.00 0.00 0.00
20260504231752 70 345 2.6 1.7 0.00 0.00 0.00
20260504231001 71 243 1.7 0.0 0.00 0.00 0.00
20260504230751 71 243 1.7 0.0 0.00 0.00 0.00
20260504230249 71 356 0.9 3.5 0.00 0.00 0.00
20260504225751 71 294 0.0 5.2 0.00 0.00 0.00
20260504225249 71 273 5.2 5.2 0.00 0.00 0.00
20260504224750 71 319 1.7 2.6 0.00 0.00 0.00
20260504224248 71 41 2.6 1.7 0.00 0.00 0.00
20260504223750 72 266 0.9 0.9 0.00 0.00 0.00
20260504223248 72 134 2.6 4.3 0.00 0.00 0.00
20260504222749 72 84 0.9 3.5 0.00 0.00 0.00
20260504222246 71 335 2.6 2.6 0.00 0.00 0.00
20260504221747 72 139 3.5 5.2 0.00 0.00 0.00
20260504220747 73 32 2.6 1.7 0.00 0.00 0.00
20260504215746 72 25 1.7 0.0 0.00 0.00 0.00
20260504215244 73 336 1.7 0.9 0.00 0.00 0.00
20260504214244 73 39 2.6 0.0 0.00 0.00 0.00
20260504213745 73 339 3.5 5.2 0.00 0.00 0.00
20260504213243 73 271 3.5 0.0 0.00 0.00 0.00
20260504212744 73 134 4.3 3.5 0.00 0.00 0.00
20260504212243 73 77 1.7 1.7 0.00 0.00 0.00
20260504211744 73 25 2.6 1.7 0.00 0.00 0.00
20260504211242 73 108 4.3 3.5 0.00 0.00 0.00
20260504210743 73 129 1.7 2.6 0.00 0.00 0.00
20260504210242 73 25 1.7 2.6 0.00 0.00 0.00
20260504205743 73 113 3.5 1.7 0.00 0.00 0.00
20260504205241 73 124 5.2 4.3 0.00 0.00 0.00
20260504204241 73 128 5.2 7.8 0.00 0.00 0.00
20260504203742 74 307 4.3 5.2 0.00 0.00 0.00
20260504201741 74 79 4.3 4.3 0.00 0.00 0.00
20260504195740 74 132 2.6 7.8 0.00 0.00 0.00
20260504193739 76 98 2.6 2.6 0.00 0.00 0.00
20260504191234 76 90 2.6 4.3 0.00 0.00 0.00
20260504190736 75 118 6.1 7.8 0.00 0.00 0.00
20260504185735 75 301 7.8 7.0 0.00 0.00 0.00
20260504182233 78 305 2.6 4.3 0.00 0.00 0.00
20260504181734 76 135 5.2 1.7 0.00 0.00 0.00
20260504174229 78 127 2.6 3.5 0.00 0.00 0.00
20260504173730 79 179 2.6 0.9 0.00 0.00 0.00
20260504173228 79 41 3.5 0.9 0.00 0.00 0.00
20260504172730 77 172 3.5 0.0 0.00 0.00 0.00
20260504171729 78 128 0.9 0.0 0.00 0.00 0.00
20260504170729 78 52 0.9 0.0 0.00 0.00 0.00
20260504170227 77 128 5.2 2.6 0.00 0.00 0.00
20260504160225 79 316 0.0 3.5 0.00 0.00 0.00
20260504150724 71 297 2.6 3.5 0.00 0.00 0.00
20260504150223 70 293 0.9 4.3 0.00 0.00 0.00
20260504141221 67 14 0.0 3.5 0.00 0.00 0.00
20260504140722 66 322 0.9 0.0 0.00 0.00 0.00
20260504140259 65 284 0.9 4.3 0.00 0.00 0.00
20260504130216 62 294 0.9 0.9 0.00 0.00 0.00
20260504110712 53 194 0.0 0.0 0.00 0.00 0.00
20260504110210 53 194 0.0 0.0 0.00 0.00 0.00
20260504100206 50 194 0.0 0.0 0.00 0.00 0.00
20260504081704 51 194 0.0 0.0 0.00 0.00 0.00
20260504081203 51 194 0.0 0.0 0.00 0.00 0.00
20260504080704 50 194 0.0 0.0 0.00 0.00 0.00
20260504080202 51 194 0.0 0.0 0.00 0.00 0.00
20260504070158 52 194 0.0 0.0 0.00 0.00 0.00
20260504050656 52 194 0.0 0.0 0.00 0.00 0.00
20260504050154 53 194 0.0 0.0 0.00 0.00 0.00
20260504045655 53 194 0.0 0.0 0.00 0.00 0.00
20260504045154 53 194 0.0 0.0 0.00 0.00 0.00
20260504044655 53 194 0.0 0.0 0.00 0.00 0.00
20260504044153 53 194 0.0 0.0 0.00 0.00 0.00
20260504043654 53 194 0.0 0.0 0.00 0.00 0.00
20260504043153 53 194 0.0 0.0 0.00 0.00 0.00
20260504042654 53 194 0.0 0.0 0.00 0.00 0.00
20260504041653 54 194 0.0 0.0 0.00 0.00 0.00
20260504041152 53 194 0.0 0.0 0.00 0.00 0.00
20260504040653 54 194 0.0 0.0 0.00 0.70 0.00